sat.trackr.live / text

‹ back to catalog

STARLINK-30930

NORAD 58385 · 2023-178M

PAYLOAD ACTIVE UNKNOWN

§ Identity

Operator
Country
US
Launch date
2023-11-20
Launch site
AFWTR
Launch vehicle
Mass (kg)
RCS (m²)

Purposes: comms

External: N2YO · Heavens-Above · Gunter

§ Orbital elements

Epoch: 2026-05-24T21:13:13.610784Z

Period
93.85 min
Inclination
53.1605°
Eccentricity
0.0001249
Mean motion
15.34371562 rev/d
Perigee alt
461.9 km
Apogee alt
463.6 km
Semi-major
6,840.9 km
B*
-3.9567e-5
RAAN
5.9902°
Arg perigee
75.8673°
Mean anomaly
284.2468°
Rev number
14,144

§ Raw data

STARLINK-309301 58385U 23178M   26144.88418531 -.00001711  00000+0 -39567-4 0  99902 58385  53.1605   5.9902 0001249  75.8673 284.2468 15.34371562141443

JSON: /api/v1/satellites/58385 · /tle

For live sub-satellite position, see the globe view (requires WebGL).

§ Visibility from observer

Set your observer location to see the next 7 days of passes ≥ 10°. The values pass through the URL so the page stays shareable.

No JS? Fill the form by hand. The geolocation button needs JavaScript.